When you browse on this site, cookies collect data to enhance your experience and personalize the content and advertising you see.
Visit our Privacy Policy to learn more. By continuing to use the site, you agree to this use of cookies and data.
  • In Hungary
  • List of Countries
  • For 7 days
  • Water Temperature
  • Weather Map
  • News
  • Weather Widgets
  • user-avatar
    Login

    Hourly Weather Amarnath

    Today, 13 December, Friday

    Time Temperature Precipitation Wind Pressure Humidity
    00:00 +23°C° 0 mm 0 mps 754 mmHg 64%
    01:00 +23°C° 0 mm 0 mps 754 mmHg 64%
    02:00 +23°C° 0 mm 0 mps 754 mmHg 65%
    03:00 +22°C° 0 mm 0 mps 754 mmHg 65%
    04:00 +22°C° 0 mm 0 mps 754 mmHg 65%
    05:00 +21°C° 0 mm 0 mps 754 mmHg 68%
    06:00 +22°C° 0 mm 0 mps 755 mmHg 65%
    07:00 +25°C° 0 mm 1 mps 756 mmHg 63%
    08:00 +25°C° 0 mm 1 mps 756 mmHg 60%
    09:00 +27°C° 0 mm 1 mps 756 mmHg 55%
    10:00 +29°C° 0 mm 1 mps 756 mmHg 49%
    11:00 +31°C° 0 mm 1 mps 756 mmHg 43%
    12:00 +31°C° 0 mm 1 mps 756 mmHg 40%
    13:00 +32°C° 0 mm 2 mps 755 mmHg 37%
    14:00 +34°C° 0 mm 2 mps 754 mmHg 34%
    15:00 +32°C° 0 mm 2 mps 754 mmHg 40%
    16:00 +31°C° 0 mm 2 mps 754 mmHg 45%
    17:00 +29°C° 0 mm 2 mps 755 mmHg 50%
    18:00 +28°C° 0 mm 2 mps 755 mmHg 55%
    19:00 +27°C° 0 mm 2 mps 756 mmHg 61%
    20:00 +26°C° 0 mm 2 mps 756 mmHg 67%
    21:00 +25°C° 0 mm 1 mps 756 mmHg 68%
    22:00 +25°C° 0 mm 1 mps 756 mmHg 70%
    23:00 +24°C° 0 mm 1 mps 756 mmHg 71%

    Tomorrow, 14 December, Saturday

    Time Temperature Precipitation Wind Pressure Humidity
    00:00 +24°C° 0 mm 1 mps 756 mmHg 72%
    01:00 +24°C° 0 mm 1 mps 756 mmHg 73%
    02:00 +23°C° 0 mm 1 mps 756 mmHg 73%
    03:00 +23°C° 0 mm 1 mps 756 mmHg 74%
    04:00 +23°C° 0 mm 1 mps 756 mmHg 74%
    05:00 +23°C° 0 mm 1 mps 756 mmHg 75%
    06:00 +23°C° 0 mm 1 mps 757 mmHg 71%
    07:00 +24°C° 0 mm 1 mps 758 mmHg 68%
    08:00 +25°C° 0 mm 1 mps 758 mmHg 65%
    09:00 +27°C° 0 mm 1 mps 758 mmHg 57%
    10:00 +29°C° 0 mm 1 mps 758 mmHg 50%
    11:00 +31°C° 0 mm 1 mps 758 mmHg 42%
    12:00 +32°C° 0 mm 1 mps 757 mmHg 40%
    13:00 +34°C° 0 mm 2 mps 756 mmHg 37%
    14:00 +35°C° 0 mm 2 mps 755 mmHg 35%
    15:00 +34°C° 0 mm 2 mps 755 mmHg 39%
    16:00 +32°C° 0 mm 2 mps 755 mmHg 42%
    17:00 +31°C° 0 mm 3 mps 755 mmHg 46%
    18:00 +29°C° 0 mm 2 mps 755 mmHg 51%
    19:00 +28°C° 0 mm 2 mps 756 mmHg 55%
    20:00 +27°C° 0 mm 1 mps 757 mmHg 60%
    21:00 +26°C° 0 mm 1 mps 757 mmHg 61%
    22:00 +26°C° 0 mm 1 mps 757 mmHg 62%
    23:00 +25°C° 0 mm 1 mps 757 mmHg 62%

    Day after tomorrow, 15 December, Sunday

    Time Temperature Precipitation Wind Pressure Humidity
    00:00 +25°C° 0 mm 1 mps 756 mmHg 63%
    01:00 +24°C° 0 mm 1 mps 756 mmHg 64%
    02:00 +24°C° 0 mm 1 mps 756 mmHg 65%
    03:00 +24°C° 0 mm 1 mps 755 mmHg 65%
    04:00 +23°C° 0 mm 1 mps 755 mmHg 65%
    05:00 +23°C° 0 mm 1 mps 755 mmHg 65%
    06:00 +24°C° 0 mm 1 mps 756 mmHg 62%
    07:00 +25°C° 0 mm 1 mps 757 mmHg 60%
    08:00 +25°C° 0 mm 1 mps 757 mmHg 57%
    09:00 +28°C° 0 mm 1 mps 757 mmHg 50%
    10:00 +30°C° 0 mm 1 mps 757 mmHg 44%
    11:00 +32°C° 0 mm 1 mps 756 mmHg 37%
    12:00 +33°C° 0 mm 1 mps 756 mmHg 36%
    13:00 +34°C° 0 mm 1 mps 755 mmHg 34%
    14:00 +35°C° 0 mm 2 mps 754 mmHg 33%
    15:00 +34°C° 0 mm 2 mps 754 mmHg 36%
    16:00 +32°C° 0 mm 2 mps 754 mmHg 40%
    17:00 +31°C° 0 mm 2 mps 754 mmHg 43%
    18:00 +30°C° 0 mm 2 mps 754 mmHg 48%
    19:00 +29°C° 0 mm 1 mps 755 mmHg 52%
    20:00 +27°C° 0 mm 1 mps 755 mmHg 56%
    21:00 +27°C° 0 mm 1 mps 755 mmHg 57%
    22:00 +26°C° 0 mm 1 mps 755 mmHg 57%
    23:00 +26°C° 0 mm 1 mps 755 mmHg 58%

    16 December, Monday

    Time Temperature Precipitation Wind Pressure Humidity
    00:00 +25°C° 0 mm 1 mps 755 mmHg 58%
    01:00 +25°C° 0 mm 1 mps 755 mmHg 58%
    02:00 +25°C° 0 mm 1 mps 755 mmHg 58%
    03:00 +24°C° 0 mm 1 mps 755 mmHg 59%
    04:00 +24°C° 0 mm 1 mps 755 mmHg 59%
    05:00 +24°C° 0 mm 1 mps 755 mmHg 59%
    06:00 +25°C° 0 mm 1 mps 755 mmHg 57%
    07:00 +25°C° 0 mm 1 mps 756 mmHg 55%
    08:00 +26°C° 0 mm 1 mps 757 mmHg 53%
    09:00 +28°C° 0 mm 1 mps 757 mmHg 48%
    10:00 +29°C° 0 mm 0 mps 756 mmHg 42%
    11:00 +31°C° 0 mm 0 mps 756 mmHg 37%
    12:00 +33°C° 0 mm 1 mps 755 mmHg 36%
    13:00 +35°C° 0 mm 2 mps 755 mmHg 35%
    14:00 +35°C° 0 mm 2 mps 754 mmHg 34%
    15:00 +34°C° 0 mm 2 mps 754 mmHg 37%
    16:00 +32°C° 0 mm 2 mps 754 mmHg 40%
    17:00 +32°C° 0 mm 2 mps 754 mmHg 44%
    18:00 +30°C° 0 mm 2 mps 755 mmHg 49%
    19:00 +29°C° 0 mm 2 mps 755 mmHg 53%
    20:00 +27°C° 0 mm 1 mps 756 mmHg 58%
    21:00 +27°C° 0 mm 1 mps 756 mmHg 59%
    22:00 +26°C° 0 mm 1 mps 756 mmHg 61%
    23:00 +26°C° 0 mm 1 mps 756 mmHg 62%

    17 December, Tuesday

    Time Temperature Precipitation Wind Pressure Humidity
    00:00 +25°C° 0 mm 1 mps 755 mmHg 63%
    01:00 +25°C° 0 mm 1 mps 755 mmHg 64%
    02:00 +25°C° 0 mm 1 mps 755 mmHg 64%
    03:00 +25°C° 0 mm 1 mps 755 mmHg 64%
    04:00 +24°C° 0 mm 1 mps 755 mmHg 64%
    05:00 +22°C° 0 mm 0 mps 755 mmHg 65%
    06:00 +25°C° 0 mm 1 mps 756 mmHg 62%
    07:00 +26°C° 0 mm 1 mps 757 mmHg 59%
    08:00 +26°C° 0 mm 1 mps 757 mmHg 57%
    09:00 +29°C° 0 mm 1 mps 757 mmHg 50%
    10:00 +31°C° 0 mm 1 mps 757 mmHg 44%
    11:00 +33°C° 0 mm 1 mps 757 mmHg 37%
    12:00 +34°C° 0 mm 1 mps 756 mmHg 36%
    13:00 +34°C° 0 mm 1 mps 756 mmHg 34%
    14:00 +35°C° 0 mm 1 mps 755 mmHg 32%
    15:00 +35°C° 0 mm 2 mps 755 mmHg 36%
    16:00 +34°C° 0 mm 2 mps 755 mmHg 40%
    17:00 +32°C° 0 mm 2 mps 755 mmHg 44%
    18:00 +30°C° 0 mm 2 mps 755 mmHg 50%
    19:00 +29°C° 0 mm 1 mps 756 mmHg 55%
    20:00 +28°C° 0 mm 1 mps 756 mmHg 61%
    21:00 +25°C° 0 mm 0 mps 756 mmHg 61%
    22:00 +25°C° 0 mm 0 mps 756 mmHg 62%
    23:00 +25°C° 0 mm 0 mps 756 mmHg 62%

    18 December, Wednesday

    Time Temperature Precipitation Wind Pressure Humidity
    00:00 +24°C° 0 mm 0 mps 756 mmHg 63%
    01:00 +24°C° 0 mm 0 mps 756 mmHg 63%
    02:00 +26°C° 0 mm 1 mps 755 mmHg 64%
    03:00 +26°C° 0 mm 1 mps 756 mmHg 63%
    04:00 +25°C° 0 mm 1 mps 756 mmHg 63%
    05:00 +25°C° 0 mm 1 mps 756 mmHg 63%
    06:00 +26°C° 0 mm 1 mps 756 mmHg 60%
    07:00 +26°C° 0 mm 1 mps 757 mmHg 57%
    08:00 +27°C° 0 mm 1 mps 757 mmHg 54%
    09:00 +29°C° 0 mm 1 mps 757 mmHg 48%
    10:00 +31°C° 0 mm 2 mps 757 mmHg 42%
    11:00 +34°C° 0 mm 2 mps 757 mmHg 36%
    12:00 +34°C° 0 mm 1 mps 756 mmHg 34%
    13:00 +34°C° 0 mm 1 mps 755 mmHg 33%
    14:00 +35°C° 0 mm 1 mps 755 mmHg 31%
    15:00 +34°C° 0 mm 1 mps 755 mmHg 34%
    16:00 +34°C° 0 mm 2 mps 755 mmHg 37%
    17:00 +32°C° 0 mm 2 mps 754 mmHg 40%
    18:00 +31°C° 0 mm 2 mps 755 mmHg 46%
    19:00 +29°C° 0 mm 2 mps 755 mmHg 52%
    20:00 +28°C° 0 mm 1 mps 756 mmHg 57%
    21:00 +27°C° 0 mm 1 mps 756 mmHg 59%
    22:00 +27°C° 0 mm 1 mps 756 mmHg 60%
    23:00 +26°C° 0 mm 1 mps 756 mmHg 61%
    Show more